LIC2510 NZNS-NZRO

Flight info

Callsign LIC2510
Flight time 0h 44m
Altitude 37000
Route SNAPA Q438 TM H247 IBAMU
Aircraft C750/M-SBDE3FGHRWXY/S

Departure

Time 2026-05-05 09:14
Airport Nelson Airport (NZNS)

Arrival

Time 2026-05-05 09:59
Airport Rotorua Regional Airport (NZRO)
Time Latitude Longitude Altitude Speed Heading
2026-05-05 09:04 -41.29953 173.22379 28 ft 0 kts 220°
2026-05-05 09:12 -41.29962 173.22360 28 ft 7 kts 243°
2026-05-05 09:12 -41.29992 173.22289 28 ft 9 kts 227°
2026-05-05 09:13 -41.30047 173.22222 28 ft 13 kts 219°
2026-05-05 09:13 -41.30127 173.22131 28 ft 17 kts 218°
2026-05-05 09:13 -41.30193 173.22028 28 ft 13 kts 264°
2026-05-05 09:13 -41.30149 173.21934 28 ft 11 kts 337°
2026-05-05 09:14 -41.30117 173.21940 28 ft 17 kts 22°
2026-05-05 09:14 -41.29737 173.22354 29 ft 125 kts 42°
2026-05-05 09:14 -41.29006 173.23223 555 ft 150 kts 43°
2026-05-05 09:14 -41.28036 173.23917 1155 ft 166 kts 21°
2026-05-05 09:15 -41.26947 173.24550 1950 ft 175 kts 24°
2026-05-05 09:15 -41.25818 173.25262 2802 ft 183 kts 23°
2026-05-05 09:15 -41.24643 173.25996 3706 ft 192 kts 22°
2026-05-05 09:15 -41.23394 173.26769 4654 ft 204 kts 21°
2026-05-05 09:16 -41.22083 173.27582 5697 ft 211 kts 21°
2026-05-05 09:16 -41.20747 173.28415 6804 ft 213 kts 22°
2026-05-05 09:16 -41.19393 173.29256 7887 ft 217 kts 22°
2026-05-05 09:16 -41.18056 173.30232 8976 ft 223 kts 33°
2026-05-05 09:17 -41.16832 173.31510 10125 ft 224 kts 36°
2026-05-05 09:17 -41.15612 173.32775 11191 ft 221 kts 35°
2026-05-05 09:17 -41.14393 173.34008 12232 ft 219 kts 34°
2026-05-05 09:17 -41.13185 173.35232 13271 ft 218 kts 34°
2026-05-05 09:18 -41.11990 173.36447 14307 ft 216 kts 34°
2026-05-05 09:18 -41.10803 173.37653 15225 ft 214 kts 34°
2026-05-05 09:18 -41.09626 173.38848 16150 ft 212 kts 34°
2026-05-05 09:18 -41.08458 173.40034 17086 ft 211 kts 34°
2026-05-05 09:19 -41.07296 173.41213 18030 ft 210 kts 35°
2026-05-05 09:19 -41.06139 173.42386 18958 ft 209 kts 35°
2026-05-05 09:19 -41.04983 173.43557 19789 ft 209 kts 35°
2026-05-05 09:19 -41.03827 173.44728 20619 ft 210 kts 35°
2026-05-05 09:20 -41.02667 173.45903 21449 ft 210 kts 35°
2026-05-05 09:20 -41.01521 173.47064 22266 ft 210 kts 35°
2026-05-05 09:20 -41.00357 173.48241 23095 ft 211 kts 36°
2026-05-05 09:20 -40.99191 173.49421 23916 ft 211 kts 36°
2026-05-05 09:21 -40.98009 173.50616 24610 ft 211 kts 36°
2026-05-05 09:21 -40.96854 173.51783 25259 ft 212 kts 36°
2026-05-05 09:21 -40.95680 173.52968 25910 ft 213 kts 36°
2026-05-05 09:21 -40.94502 173.54155 26567 ft 213 kts 36°
2026-05-05 09:22 -40.93324 173.55344 27214 ft 213 kts 36°
2026-05-05 09:22 -40.92142 173.56539 27851 ft 215 kts 37°
2026-05-05 09:22 -40.90952 173.57739 28483 ft 216 kts 37°
2026-05-05 09:22 -40.89752 173.58947 29108 ft 218 kts 37°
2026-05-05 09:23 -40.88528 173.60135 29707 ft 219 kts 32°
2026-05-05 09:23 -40.87245 173.61236 30307 ft 221 kts 36°
2026-05-05 09:23 -40.85998 173.62430 30844 ft 222 kts 37°
2026-05-05 09:23 -40.84727 173.63599 31354 ft 223 kts 35°
2026-05-05 09:24 -40.83442 173.64746 31870 ft 224 kts 34°
2026-05-05 09:24 -40.82150 173.65905 32391 ft 224 kts 34°
2026-05-05 09:24 -40.80857 173.67071 32908 ft 225 kts 34°
2026-05-05 09:24 -40.79562 173.68239 33417 ft 226 kts 34°
2026-05-05 09:25 -40.78239 173.69430 33659 ft 240 kts 34°
2026-05-05 09:25 -40.76791 173.70732 33692 ft 263 kts 34°
2026-05-05 09:25 -40.75212 173.72151 33750 ft 285 kts 34°
2026-05-05 09:25 -40.73510 173.73681 33824 ft 307 kts 34°
2026-05-05 09:26 -40.71686 173.75318 33894 ft 327 kts 34°
2026-05-05 09:26 -40.69750 173.77056 33969 ft 347 kts 34°
2026-05-05 09:26 -40.67721 173.78875 34027 ft 366 kts 34°
2026-05-05 09:26 -40.65530 173.80838 34089 ft 385 kts 34°
2026-05-05 09:27 -40.63297 173.82836 34136 ft 403 kts 34°
2026-05-05 09:27 -40.60929 173.84955 34175 ft 420 kts 34°
2026-05-05 09:27 -40.58465 173.87157 34200 ft 436 kts 34°
2026-05-05 09:27 -40.55911 173.89437 34235 ft 451 kts 34°
2026-05-05 09:28 -40.53271 173.91791 34263 ft 465 kts 34°
2026-05-05 09:28 -40.50581 173.94189 34727 ft 467 kts 34°
2026-05-05 09:28 -40.47893 173.96583 35283 ft 467 kts 34°
2026-05-05 09:28 -40.45205 173.98972 35784 ft 468 kts 34°
2026-05-05 09:29 -40.42506 174.01370 36294 ft 469 kts 33°
2026-05-05 09:29 -40.39806 174.03766 36826 ft 467 kts 33°
2026-05-05 09:29 -40.37102 174.06165 37027 ft 476 kts 33°
2026-05-05 09:29 -40.34313 174.08635 36978 ft 490 kts 33°
2026-05-05 09:30 -40.31455 174.11163 36983 ft 501 kts 34°
2026-05-05 09:30 -40.25574 174.16361 36987 ft 518 kts 34°
2026-05-05 09:31 -40.19539 174.21683 36989 ft 526 kts 33°
2026-05-05 09:31 -40.13464 174.27029 36988 ft 527 kts 33°
2026-05-05 09:32 -40.07377 174.32373 36990 ft 527 kts 33°
2026-05-05 09:32 -40.01284 174.37711 36992 ft 527 kts 33°
2026-05-05 09:33 -39.95189 174.43040 36995 ft 527 kts 33°
2026-05-05 09:33 -39.89090 174.48358 36990 ft 528 kts 33°
2026-05-05 09:34 -39.83025 174.53639 36990 ft 528 kts 33°
2026-05-05 09:34 -39.76917 174.58942 36993 ft 528 kts 33°
2026-05-05 09:35 -39.70771 174.64268 36996 ft 528 kts 33°
2026-05-05 09:35 -39.61639 174.72156 37003 ft 528 kts 33°
2026-05-05 09:36 -39.55576 174.77382 36309 ft 501 kts 33°
2026-05-05 09:36 -39.52731 174.79830 35663 ft 481 kts 33°
2026-05-05 09:36 -39.49994 174.82182 35050 ft 465 kts 33°
2026-05-05 09:37 -39.47326 174.84472 34437 ft 457 kts 33°
2026-05-05 09:37 -39.44709 174.86717 33822 ft 458 kts 33°
2026-05-05 09:37 -39.42035 174.89009 33210 ft 464 kts 33°
2026-05-05 09:37 -39.39332 174.91323 32599 ft 468 kts 33°
2026-05-05 09:38 -39.36613 174.93649 31982 ft 469 kts 33°
2026-05-05 09:38 -39.33886 174.95980 31360 ft 470 kts 33°
2026-05-05 09:38 -39.31152 174.98314 30744 ft 470 kts 33°
2026-05-05 09:38 -39.28443 175.00625 30079 ft 463 kts 33°
2026-05-05 09:39 -39.25774 175.02900 29471 ft 457 kts 32°
2026-05-05 09:39 -39.23131 175.05151 28864 ft 454 kts 32°
2026-05-05 09:39 -39.20519 175.07375 28277 ft 446 kts 32°
2026-05-05 09:39 -39.17942 175.09563 27691 ft 442 kts 32°
2026-05-05 09:40 -39.15384 175.11732 27109 ft 437 kts 32°
2026-05-05 09:40 -39.12860 175.13873 26545 ft 433 kts 32°
2026-05-05 09:40 -39.11165 175.15311 26164 ft 430 kts 32°
2026-05-05 09:40 -39.08712 175.17391 25602 ft 426 kts 32°
2026-05-05 09:41 -39.06250 175.19475 25044 ft 421 kts 32°
2026-05-05 09:41 -39.03811 175.21536 24491 ft 417 kts 32°
2026-05-05 09:41 -39.00585 175.24262 23706 ft 413 kts 31°
2026-05-05 09:41 -38.99000 175.25600 23343 ft 410 kts 31°
2026-05-05 09:42 -38.96619 175.27607 22819 ft 407 kts 31°
2026-05-05 09:42 -38.94263 175.29593 22282 ft 404 kts 31°
2026-05-05 09:42 -38.91958 175.31634 21722 ft 402 kts 37°
2026-05-05 09:42 -38.89928 175.34093 21219 ft 400 kts 43°
2026-05-05 09:43 -38.88018 175.36547 20705 ft 376 kts 43°
2026-05-05 09:43 -38.86201 175.38834 20222 ft 357 kts 42°
2026-05-05 09:43 -38.84432 175.41002 19757 ft 348 kts 41°
2026-05-05 09:43 -38.82679 175.43164 19304 ft 361 kts 42°
2026-05-05 09:44 -38.80800 175.45507 18809 ft 384 kts 42°
2026-05-05 09:44 -38.78900 175.47885 18279 ft 381 kts 42°
2026-05-05 09:44 -38.77000 175.50247 17768 ft 380 kts 42°
2026-05-05 09:44 -38.75104 175.52592 17254 ft 378 kts 42°
2026-05-05 09:45 -38.73221 175.54924 16764 ft 376 kts 42°
2026-05-05 09:45 -38.71354 175.57241 16267 ft 373 kts 42°
2026-05-05 09:45 -38.69490 175.59550 15784 ft 371 kts 42°
2026-05-05 09:45 -38.67643 175.61833 15298 ft 369 kts 42°
2026-05-05 09:46 -38.65803 175.64105 14808 ft 367 kts 42°
2026-05-05 09:46 -38.63973 175.66367 14325 ft 364 kts 42°
2026-05-05 09:46 -38.62157 175.68610 13818 ft 362 kts 42°
2026-05-05 09:46 -38.60352 175.70835 13341 ft 359 kts 42°
2026-05-05 09:47 -38.58560 175.73043 12874 ft 357 kts 42°
2026-05-05 09:47 -38.56776 175.75240 12402 ft 356 kts 42°
2026-05-05 09:47 -38.55001 175.77425 11935 ft 353 kts 42°
2026-05-05 09:47 -38.53237 175.79594 11471 ft 351 kts 42°
2026-05-05 09:48 -38.51520 175.81705 11011 ft 331 kts 43°
2026-05-05 09:48 -38.49918 175.83675 10588 ft 310 kts 43°
2026-05-05 09:48 -38.48409 175.85527 10170 ft 293 kts 42°
2026-05-05 09:48 -38.46963 175.87298 9783 ft 284 kts 42°
2026-05-05 09:49 -38.45547 175.89033 9423 ft 282 kts 42°
2026-05-05 09:49 -38.44134 175.90764 9052 ft 281 kts 42°
2026-05-05 09:49 -38.42725 175.92489 8683 ft 280 kts 42°
2026-05-05 09:49 -38.41324 175.94204 8314 ft 278 kts 42°
2026-05-05 09:50 -38.39870 175.95750 7949 ft 274 kts 36°
2026-05-05 09:50 -38.38365 175.97243 7594 ft 274 kts 37°
2026-05-05 09:50 -38.36882 175.98757 7234 ft 272 kts 37°
2026-05-05 09:50 -38.35404 176.00248 6871 ft 270 kts 36°
2026-05-05 09:51 -38.33931 176.01714 6499 ft 268 kts 36°
2026-05-05 09:51 -38.32469 176.03173 6146 ft 266 kts 36°
2026-05-05 09:51 -38.31020 176.04624 5795 ft 265 kts 37°
2026-05-05 09:51 -38.29573 176.06072 5448 ft 264 kts 36°
2026-05-05 09:52 -38.28131 176.07512 5089 ft 262 kts 36°
2026-05-05 09:52 -38.26766 176.08878 4738 ft 236 kts 37°
2026-05-05 09:52 -38.25533 176.10110 4427 ft 217 kts 36°
2026-05-05 09:52 -38.24364 176.11273 4154 ft 211 kts 36°
2026-05-05 09:53 -38.23362 176.12554 3992 ft 192 kts 53°
2026-05-05 09:53 -38.22712 176.13903 4019 ft 171 kts 55°
2026-05-05 09:53 -38.22077 176.15170 4018 ft 170 kts 54°
2026-05-05 09:53 -38.21435 176.16445 4013 ft 173 kts 54°
2026-05-05 09:54 -38.20844 176.17631 3812 ft 140 kts 54°
2026-05-05 09:54 -38.20375 176.18574 3570 ft 118 kts 53°
2026-05-05 09:54 -38.19944 176.19428 3349 ft 113 kts 53°
2026-05-05 09:54 -38.19525 176.20264 3300 ft 117 kts 53°
2026-05-05 09:55 -38.19073 176.21162 3195 ft 120 kts 53°
2026-05-05 09:55 -38.18615 176.22076 3029 ft 123 kts 54°
2026-05-05 09:55 -38.18164 176.22980 2872 ft 120 kts 54°
2026-05-05 09:55 -38.17728 176.23854 2713 ft 116 kts 54°
2026-05-05 09:56 -38.17290 176.24727 2555 ft 118 kts 55°
2026-05-05 09:56 -38.16849 176.25610 2395 ft 120 kts 55°
2026-05-05 09:56 -38.16396 176.26513 2219 ft 121 kts 56°
2026-05-05 09:56 -38.15952 176.27399 2041 ft 117 kts 57°
2026-05-05 09:57 -38.15517 176.28259 1875 ft 114 kts 56°
2026-05-05 09:57 -38.14986 176.28985 1716 ft 111 kts 39°
2026-05-05 09:57 -38.14330 176.29508 1567 ft 112 kts 25°
2026-05-05 09:57 -38.13618 176.29915 1421 ft 112 kts 26°
2026-05-05 09:58 -38.12910 176.30337 1283 ft 112 kts 25°
2026-05-05 09:58 -38.12205 176.30754 1126 ft 111 kts 25°
2026-05-05 09:58 -38.11506 176.31167 996 ft 108 kts 25°
2026-05-05 09:58 -38.10885 176.31530 946 ft 75 kts 21°
2026-05-05 09:59 -38.10614 176.31688 945 ft 22 kts 19°
2026-05-05 09:59 -38.10589 176.31702 945 ft 0 kts 50°
2026-05-05 09:59 -38.10589 176.31706 945 ft 1 kts 88°
2026-05-05 09:59 -38.10594 176.31705 944 ft 1 kts 184°
2026-05-05 10:00 -38.10616 176.31696 944 ft 6 kts 199°
2026-05-05 10:00 -38.10667 176.31669 945 ft 8 kts 200°
2026-05-05 10:00 -38.10713 176.31642 946 ft 9 kts 207°
2026-05-05 10:00 -38.10768 176.31607 946 ft 8 kts 207°
2026-05-05 10:01 -38.10822 176.31572 946 ft 9 kts 207°
2026-05-05 10:01 -38.10885 176.31545 946 ft 10 kts 166°
2026-05-05 10:01 -38.10923 176.31606 946 ft 9 kts 118°
2026-05-05 10:01 -38.10952 176.31670 944 ft 1 kts 122°
2026-05-05 10:02 -38.10964 176.31676 944 ft 4 kts 182°
2026-05-05 10:02 -38.10974 176.31672 944 ft 0 kts 199°